Saint Bonnet de Bellac- Haute Vienne - France
Donnes mto: lundi, 29/10/2012
Date Horaire Temp. E. Hum. E. P.atmo. Pluie Vent Direction Direction Ensoleilleme Solaire P. de rose Temp au vent Rafales
29/10/2012 11:02 13,4 C 56 % 1016,0 hPa 0,0 mm 0,0 km/h (0 Bft) SO 225 0 min 0 W/m 4,8 C 13,4 C 0,0 km/h (0 Bft)
29/10/2012 11:05 13,1 C 57 % 1016,1 hPa 0,0 mm 0,0 km/h (0 Bft) S 180 0 min 0 W/m 4,8 C 13,1 C 0,0 km/h (0 Bft)
29/10/2012 11:08 13,8 C 59 % 1016,3 hPa 0,0 mm 0,0 km/h (0 Bft) S 180 0 min 0 W/m 5,9 C 13,8 C 0,0 km/h (0 Bft)
29/10/2012 11:10 14,6 C 57 % 1016,1 hPa 0,0 mm 0,0 km/h (0 Bft) S 180 0 min 0 W/m 6,2 C 14,6 C 0,0 km/h (0 Bft)
29/10/2012 11:15 15,8 C 53 % 1016,1 hPa 0,0 mm 0,0 km/h (0 Bft) S 180 0 min 0 W/m 6,2 C 15,8 C 0,0 km/h (0 Bft)
29/10/2012 11:20 16,1 C 51 % 1016,2 hPa 0,0 mm 0,7 km/h (0 Bft) E-SE 112 0 min 0 W/m 6,0 C 16,1 C 0,7 km/h (0 Bft)
29/10/2012 11:25 16,8 C 54 % 1016,2 hPa 0,0 mm 0,0 km/h (0 Bft) E-SE 112 0 min 0 W/m 7,4 C 16,8 C 3,2 km/h (1 Bft)
29/10/2012 11:30 16,6 C 52 % 1016,1 hPa 0,0 mm 0,0 km/h (0 Bft) E-SE 112 0 min 0 W/m 6,7 C 16,6 C 0,0 km/h (0 Bft)
29/10/2012 11:35 14,9 C 53 % 1016,2 hPa 0,0 mm 0,0 km/h (0 Bft) S-SO 202 0 min 0 W/m 5,4 C 14,9 C 0,0 km/h (0 Bft)
29/10/2012 11:40 13,8 C 55 % 1016,3 hPa 0,0 mm 0,7 km/h (0 Bft) SO 225 0 min 0 W/m 4,9 C 13,8 C 3,6 km/h (1 Bft)
29/10/2012 11:45 13,3 C 55 % 1016,4 hPa 0,0 mm 0,0 km/h (0 Bft) S-SO 202 0 min 0 W/m 4,5 C 13,3 C 0,0 km/h (0 Bft)
29/10/2012 11:50 13,1 C 57 % 1016,3 hPa 0,0 mm 0,4 km/h (0 Bft) O 270 0 min 0 W/m 4,8 C 13,1 C 3,6 km/h (1 Bft)
29/10/2012 11:55 13,2 C 56 % 1016,5 hPa 0,0 mm 0,7 km/h (0 Bft) O 270 0 min 0 W/m 4,6 C 13,2 C 2,9 km/h (1 Bft)
29/10/2012 12:00 13,1 C 57 % 1016,5 hPa 0,0 mm 1,4 km/h (1 Bft) SO 225 0 min 0 W/m 4,8 C 13,1 C 3,2 km/h (1 Bft)
29/10/2012 12:05 12,5 C 56 % 1016,3 hPa 0,0 mm 5,8 km/h (2 Bft) S-SO 202 0 min 0 W/m 4,0 C 12,5 C 7,2 km/h (2 Bft)
29/10/2012 12:10 12,4 C 56 % 1016,2 hPa 0,0 mm 1,4 km/h (1 Bft) SO 225 0 min 0 W/m 3,9 C 12,4 C 4,0 km/h (1 Bft)
29/10/2012 12:15 12,3 C 58 % 1016,1 hPa 0,0 mm 0,7 km/h (0 Bft) O-SO 247 0 min 0 W/m 4,3 C 12,3 C 3,2 km/h (1 Bft)
29/10/2012 12:20 12,3 C 58 % 1016,1 hPa 0,0 mm 2,2 km/h (1 Bft) SO 225 0 min 0 W/m 4,3 C 12,3 C 6,5 km/h (2 Bft)
29/10/2012 12:25 12,0 C 58 % 1016,1 hPa 0,0 mm 1,4 km/h (1 Bft) SO 225 0 min 0 W/m 4,0 C 12,0 C 4,0 km/h (1 Bft)
29/10/2012 12:30 11,8 C 60 % 1016,1 hPa 0,0 mm 4,3 km/h (1 Bft) O 270 0 min 0 W/m 4,3 C 11,8 C 8,6 km/h (2 Bft)
29/10/2012 12:35 11,8 C 58 % 1015,9 hPa 0,0 mm 1,1 km/h (1 Bft) SO 225 0 min 0 W/m 3,8 C 11,8 C 4,0 km/h (1 Bft)
29/10/2012 12:40 11,8 C 60 % 1016,0 hPa 0,0 mm 1,8 km/h (1 Bft) S 180 0 min 0 W/m 4,3 C 11,8 C 4,0 km/h (1 Bft)
29/10/2012 12:45 11,8 C 59 % 1016,0 hPa 0,0 mm 2,5 km/h (1 Bft) SO 225 0 min 0 W/m 4,1 C 11,8 C 4,3 km/h (1 Bft)
29/10/2012 12:50 12,1 C 59 % 1015,8 hPa 0,0 mm 0,0 km/h (0 Bft) O-SO 247 0 min 0 W/m 4,3 C 12,1 C 0,0 km/h (0 Bft)
29/10/2012 12:55 12,2 C 57 % 1015,7 hPa 0,0 mm 4,0 km/h (1 Bft) S-SO 202 0 min 0 W/m 3,9 C 12,2 C 6,5 km/h (2 Bft)
29/10/2012 13:00 12,3 C 58 % 1015,6 hPa 0,0 mm 0,0 km/h (0 Bft) O 270 0 min 0 W/m 4,3 C 12,3 C 0,0 km/h (0 Bft)
29/10/2012 13:05 12,4 C 59 % 1015,5 hPa 0,0 mm 0,4 km/h (0 Bft) O 270 0 min 0 W/m 4,6 C 12,4 C 4,3 km/h (1 Bft)
29/10/2012 13:10 12,4 C 59 % 1015,4 hPa 0,0 mm 0,0 km/h (0 Bft) O-SO 247 0 min 0 W/m 4,6 C 12,4 C 0,0 km/h (0 Bft)
29/10/2012 13:15 12,1 C 58 % 1015,4 hPa 0,0 mm 0,0 km/h (0 Bft) SO 225 0 min 0 W/m 4,1 C 12,1 C 0,0 km/h (0 Bft)
29/10/2012 13:20 11,9 C 58 % 1015,3 hPa 0,0 mm 0,0 km/h (0 Bft) S 180 0 min 0 W/m 3,9 C 11,9 C 0,0 km/h (0 Bft)
29/10/2012 13:25 12,4 C 58 % 1015,2 hPa 0,0 mm 0,0 km/h (0 Bft) O-SO 247 0 min 0 W/m 4,4 C 12,4 C 0,0 km/h (0 Bft)
29/10/2012 13:30 12,8 C 58 % 1015,1 hPa 0,0 mm 2,2 km/h (1 Bft) NO 315 0 min 0 W/m 4,7 C 12,8 C 4,0 km/h (1 Bft)
29/10/2012 13:35 12,8 C 56 % 1015,2 hPa 0,0 mm 0,0 km/h (0 Bft) O 270 0 min 0 W/m 4,2 C 12,8 C 0,0 km/h (0 Bft)
29/10/2012 13:40 12,7 C 57 % 1015,3 hPa 0,0 mm 0,0 km/h (0 Bft) O-SO 247 0 min 0 W/m 4,4 C 12,7 C 0,0 km/h (0 Bft)
29/10/2012 13:45 12,9 C 56 % 1015,2 hPa 0,0 mm 0,0 km/h (0 Bft) NO 315 0 min 0 W/m 4,3 C 12,9 C 0,0 km/h (0 Bft)
29/10/2012 13:50 12,9 C 56 % 1014,9 hPa 0,0 mm 2,5 km/h (1 Bft) O-SO 247 0 min 0 W/m 4,3 C 12,9 C 6,8 km/h (2 Bft)
29/10/2012 13:55 12,7 C 54 % 1014,8 hPa 0,0 mm 2,2 km/h (1 Bft) SO 225 0 min 0 W/m 3,6 C 12,7 C 3,2 km/h (1 Bft)
29/10/2012 14:00 12,8 C 56 % 1014,7 hPa 0,0 mm 0,0 km/h (0 Bft) O 270 0 min 0 W/m 4,2 C 12,8 C 0,0 km/h (0 Bft)
29/10/2012 14:05 12,5 C 53 % 1014,6 hPa 0,0 mm 0,7 km/h (0 Bft) SO 225 0 min 0 W/m 3,2 C 12,5 C 3,2 km/h (1 Bft)
29/10/2012 14:10 12,5 C 56 % 1014,6 hPa 0,0 mm 2,5 km/h (1 Bft) O-NO 292 0 min 0 W/m 4,0 C 12,5 C 7,6 km/h (2 Bft)
29/10/2012 14:15 12,6 C 56 % 1014,4 hPa 0,0 mm 0,4 km/h (0 Bft) O-NO 292 0 min 0 W/m 4,1 C 12,6 C 4,0 km/h (1 Bft)
29/10/2012 14:20 12,3 C 55 % 1014,3 hPa 0,0 mm 0,0 km/h (0 Bft) SO 225 0 min 0 W/m 3,5 C 12,3 C 3,2 km/h (1 Bft)
29/10/2012 14:25 12,1 C 55 % 1014,2 hPa 0,0 mm 0,0 km/h (0 Bft) SO 225 0 min 0 W/m 3,3 C 12,1 C 0,0 km/h (0 Bft)
29/10/2012 14:30 12,1 C 56 % 1014,1 hPa 0,0 mm 0,0 km/h (0 Bft) O-SO 247 0 min 0 W/m 3,6 C 12,1 C 0,0 km/h (0 Bft)
29/10/2012 14:35 12,2 C 56 % 1013,9 hPa 0,0 mm 0,0 km/h (0 Bft) O-SO 247 0 min 0 W/m 3,7 C 12,2 C 0,0 km/h (0 Bft)
29/10/2012 14:40 12,3 C 57 % 1013,9 hPa 0,0 mm 0,0 km/h (0 Bft) O-SO 247 0 min 0 W/m 4,0 C 12,3 C 0,0 km/h (0 Bft)
29/10/2012 14:45 12,4 C 56 % 1013,8 hPa 0,0 mm 0,0 km/h (0 Bft) O-SO 247 0 min 0 W/m 3,9 C 12,4 C 0,0 km/h (0 Bft)
29/10/2012 14:50 12,5 C 56 % 1013,8 hPa 0,0 mm 0,7 km/h (0 Bft) N-NE 22 0 min 0 W/m 4,0 C 12,5 C 4,0 km/h (1 Bft)
29/10/2012 14:55 12,3 C 55 % 1013,7 hPa 0,0 mm 0,0 km/h (0 Bft) NE 45 0 min 0 W/m 3,5 C 12,3 C 0,0 km/h (0 Bft)
29/10/2012 15:00 12,3 C 55 % 1013,6 hPa 0,0 mm 0,0 km/h (0 Bft) NE 45 0 min 0 W/m 3,5 C 12,3 C 0,0 km/h (0 Bft)
29/10/2012 15:05 11,8 C 55 % 1013,6 hPa 0,0 mm 0,0 km/h (0 Bft) E-SE 112 0 min 0 W/m 3,1 C 11,8 C 0,0 km/h (0 Bft)
29/10/2012 15:10 10,9 C 56 % 1013,6 hPa 0,0 mm 2,5 km/h (1 Bft) SE 135 0 min 0 W/m 2,5 C 10,9 C 4,3 km/h (1 Bft)
29/10/2012 15:15 11,3 C 57 % 1013,7 hPa 0,0 mm 1,4 km/h (1 Bft) SE 135 0 min 0 W/m 3,1 C 11,3 C 3,2 km/h (1 Bft)
29/10/2012 15:20 11,4 C 58 % 1013,6 hPa 0,0 mm 0,4 km/h (0 Bft) E-SE 112 0 min 0 W/m 3,4 C 11,4 C 0,4 km/h (0 Bft)
29/10/2012 15:25 11,3 C 58 % 1013,7 hPa 0,0 mm 0,0 km/h (0 Bft) E-SE 112 0 min 0 W/m 3,3 C 11,3 C 0,0 km/h (0 Bft)
29/10/2012 15:30 11,3 C 57 % 1013,6 hPa 0,0 mm 0,0 km/h (0 Bft) E 90 0 min 0 W/m 3,1 C 11,3 C 0,0 km/h (0 Bft)
29/10/2012 15:35 10,9 C 58 % 1013,5 hPa 0,0 mm 0,0 km/h (0 Bft) E 90 0 min 0 W/m 3,0 C 10,9 C 0,0 km/h (0 Bft)
29/10/2012 15:40 11,3 C 58 % 1013,3 hPa 0,0 mm 0,0 km/h (0 Bft) E 90 0 min 0 W/m 3,3 C 11,3 C 0,0 km/h (0 Bft)
29/10/2012 15:45 11,3 C 59 % 1013,2 hPa 0,0 mm 1,8 km/h (1 Bft) NE 45 0 min 0 W/m 3,6 C 11,3 C 3,2 km/h (1 Bft)
29/10/2012 15:50 11,3 C 59 % 1013,1 hPa 0,0 mm 0,0 km/h (0 Bft) NE 45 0 min 0 W/m 3,6 C 11,3 C 0,0 km/h (0 Bft)
29/10/2012 15:55 11,4 C 59 % 1013,1 hPa 0,0 mm 1,4 km/h (1 Bft) NE 45 0 min 0 W/m 3,7 C 11,4 C 3,6 km/h (1 Bft)
29/10/2012 16:00 11,3 C 57 % 1013,1 hPa 0,0 mm 0,0 km/h (0 Bft) NE 45 0 min 0 W/m 3,1 C 11,3 C 0,0 km/h (0 Bft)
29/10/2012 16:05 11,3 C 60 % 1013,0 hPa 0,0 mm 0,0 km/h (0 Bft) NE 45 0 min 0 W/m 3,8 C 11,3 C 0,0 km/h (0 Bft)
29/10/2012 16:10 11,3 C 59 % 1013,0 hPa 0,0 mm 0,0 km/h (0 Bft) NE 45 0 min 0 W/m 3,6 C 11,3 C 0,0 km/h (0 Bft)
29/10/2012 16:15 10,9 C 59 % 1012,9 hPa 0,0 mm 0,0 km/h (0 Bft) NE 45 0 min 0 W/m 3,2 C 10,9 C 0,0 km/h (0 Bft)
29/10/2012 16:20 10,9 C 62 % 1012,9 hPa 0,0 mm 0,0 km/h (0 Bft) NE 45 0 min 0 W/m 3,9 C 10,9 C 0,0 km/h (0 Bft)
29/10/2012 16:25 10,9 C 61 % 1012,9 hPa 0,0 mm 0,0 km/h (0 Bft) NE 45 0 min 0 W/m 3,7 C 10,9 C 0,0 km/h (0 Bft)
29/10/2012 16:30 10,8 C 63 % 1012,8 hPa 0,0 mm 0,0 km/h (0 Bft) NE 45 0 min 0 W/m 4,0 C 10,8 C 0,0 km/h (0 Bft)
29/10/2012 16:35 10,7 C 63 % 1012,8 hPa 0,0 mm 0,0 km/h (0 Bft) NE 45 0 min 0 W/m 3,9 C 10,7 C 0,0 km/h (0 Bft)
29/10/2012 16:40 10,5 C 64 % 1012,8 hPa 0,0 mm 0,0 km/h (0 Bft) NE 45 0 min 0 W/m 4,0 C 10,5 C 0,0 km/h (0 Bft)
29/10/2012 16:45 10,3 C 65 % 1012,8 hPa 0,0 mm 0,0 km/h (0 Bft) NE 45 0 min 0 W/m 4,0 C 10,3 C 0,0 km/h (0 Bft)
29/10/2012 16:50 10,0 C 66 % 1012,7 hPa 0,0 mm 0,0 km/h (0 Bft) NE 45 0 min 0 W/m 3,9 C 10,0 C 0,0 km/h (0 Bft)
29/10/2012 16:55 9,8 C 66 % 1012,7 hPa 0,0 mm 0,0 km/h (0 Bft) NE 45 0 min 0 W/m 3,8 C 9,8 C 0,0 km/h (0 Bft)
29/10/2012 17:00 9,6 C 67 % 1012,7 hPa 0,0 mm 0,0 km/h (0 Bft) NE 45 0 min 0 W/m 3,8 C 9,6 C 0,0 km/h (0 Bft)
29/10/2012 17:05 9,4 C 69 % 1012,7 hPa 0,0 mm 0,0 km/h (0 Bft) NE 45 0 min 0 W/m 4,0 C 9,4 C 0,0 km/h (0 Bft)
29/10/2012 17:10 9,3 C 69 % 1012,7 hPa 0,0 mm 0,0 km/h (0 Bft) NE 45 0 min 0 W/m 3,9 C 9,3 C 0,0 km/h (0 Bft)
29/10/2012 17:15 9,1 C 70 % 1012,5 hPa 0,0 mm 0,0 km/h (0 Bft) NE 45 0 min 0 W/m 3,9 C 9,1 C 0,0 km/h (0 Bft)
29/10/2012 17:20 8,8 C 70 % 1012,5 hPa 0,0 mm 0,0 km/h (0 Bft) NE 45 0 min 0 W/m 3,6 C 8,8 C 0,0 km/h (0 Bft)
_ Min-Heure 17:20 11:20 17:20 - 17:20 - - - - 15:10 17:20 17:20
Minimum _ 8,8 C 51 % 1012,5 hPa - 0,0 km/h (0 Bft) - - - - 2,5 C 8,8 C 0,0 km/h (0 Bft)
_ Max-Heure 11:25 17:20 12:00 17:20 12:05 - - 17:20 17:20 11:25 11:25 12:30
Maximum _ 16,8 C 70 % 1016,5 hPa 0,0 mm 5,8 km/h
S-SO (2 Bft)
- - 0 min 0 W/m 7,4 C 16,8 C 8,6 km/h
O (2 Bft)
Moyenne _ 12,4 C 58 % 1014,9 hPa #0,0 mm 0,5 km/h (0 Bft) NE - #0 min. 0 W/m 4,3 C 12,4 C 1,3 km/h (1 Bft)
Saint Bonnet de Bellac- Haute Vienne - France